Tracking 19709 objects as of 18-Jun-2019
HD Live streaming from Space Station
objects crossing your sky now

COSMOS 1375 DEB

Track COSMOS 1375 DEB now!
10-day predictions


NORAD ID: 16383
Int'l Code: 1982-055X
Perigee: 958.0 km
Apogee: 1,026.8 km
Inclination: 65.8 °
Period: 104.8 minutes
Semi major axis: 7363 km
RCS: 0.1937 m2 (medium)
Launch date: June 6, 1982
Source: Commonwealth of Independent States (former USSR) (CIS)
Launch site: PLESETSK MISSILE AND SPACE COMPLEX (PKMTR)

Note: This is SATELLITE DEBRIS
aabbcc
Your satellite tracking list
Your tracking list is empty




NASA's NSSDC Master Catalog

Two Line Element Set (TLE):
1 16383U 82055X   19167.90433554 -.00000024 +00000-0 +59712-4 0  9993
2 16383 065.8303 116.2545 0046751 186.3222 242.0063 13.73989918683584
Source of the keplerian elements: AFSPC